CW7520 Weather Reports


Display with metric or nautical units.
time (UTC)temp
F
wind
direction
speed
MPH
gust
MPH
rain 1hr
in
rain 24hr
in
rain mn
in
humidity
%
barometer
mb
20260905034510 68 0 0.0 0.0 0.00 0.09 0.06 49 1003.1
20260905033603 68 0 0.0 0.0 0.00 0.09 0.06 47 1003.0
20260905032704 69 0 0.0 0.0 0.00 0.09 0.06 46 1003.0
20260905031808 69 0 0.0 0.0 0.00 0.09 0.06 45 1003.2
20260905030904 70 0 0.0 0.0 0.00 0.09 0.06 44 1003.3
20260905030004 70 0 0.0 0.0 0.00 0.09 0.06 47 1003.5
20260905025409 70 0 0.0 0.0 0.00 0.09 0.06 50 1003.5
20260905024503 70 0 0.0 0.0 0.00 0.09 0.06 49 1003.5
20260905023610 71 0 0.0 0.0 0.00 0.09 0.06 51 1003.3
20260905022704 70 0 0.0 0.0 0.00 0.09 0.06 49 1003.6
20260905021806 70 0 0.0 0.0 0.00 0.09 0.06 50 1003.5
20260905020910 69 0 0.0 0.0 0.00 0.09 0.06 54 1003.6
20260905020008 68 0 0.0 0.0 0.00 0.09 0.06 55 1003.8
20260905015408 68 0 0.0 0.0 0.00 0.09 0.06 57 1004.0
20260905014503 67 0 0.0 0.0 0.00 0.09 0.06 58 1003.8
20260905013603 67 0 0.0 0.0 0.00 0.09 0.06 61 1004.0
20260905012710 66 0 0.0 0.0 0.00 0.09 0.06 66 1004.1
20260905011805 65 0 0.0 0.0 0.00 0.09 0.06 70 1004.2
20260905010905 64 0 0.0 0.0 0.00 0.09 0.06 72 1004.2
20260905010008 63 0 0.0 0.0 0.00 0.09 0.06 74 1004.3
20260905005624 63 0 0.0 0.0 0.00 0.09 0.06 75 1004.3
20260905004508 62 0 0.0 0.0 0.00 0.09 0.06 77 1004.4
20260905003603 62 0 0.0 0.0 0.00 0.09 0.06 78 1004.4
20260905002914 61 0 0.0 0.0 0.00 0.09 0.06 79 1004.4
20260905001813 61 0 0.0 0.0 0.00 0.09 0.06 79 1004.3
20260905001115 61 0 0.0 0.0 0.00 0.09 0.06 79 1004.4
20260905000214 61 0 0.0 0.0 0.00 0.09 0.06 78 1004.8
20260904235404 60 0 0.0 0.0 0.00 0.09 0.06 78 1004.7
20260904234505 60 0 0.0 0.0 0.00 0.09 0.06 78 1004.6
20260904233603 60 0 0.0 0.0 0.00 0.09 0.06 80 1004.5
20260904232705 59 0 0.0 0.0 0.00 0.09 0.06 80 1004.4
20260904232015 59 0 0.0 0.0 0.00 0.09 0.06 81 1004.6
20260904230903 59 0 0.0 0.0 0.00 0.09 0.06 82 1004.7
20260904230012 59 0 0.0 0.0 0.00 0.09 0.06 83 1004.4
20260904225619 59 0 0.0 0.0 0.00 0.09 0.06 82 1004.5
20260904224509 58 0 0.0 0.0 0.00 0.09 0.06 83 1004.5
20260904223608 58 0 0.0 0.0 0.01 0.09 0.06 83 1004.4
20260904222703 58 0 0.0 0.0 0.01 0.09 0.06 84 1004.9
20260904221804 58 0 0.0 0.0 0.01 0.09 0.06 85 1004.8
20260904221114 58 0 0.0 0.0 0.02 0.09 0.06 85 1004.6
20260904220008 57 0 0.0 0.0 0.02 0.09 0.06 86 1004.6
20260904215403 57 0 0.0 0.0 0.03 0.09 0.06 86 1004.8
20260904214719 57 0 0.0 0.0 0.03 0.09 0.06 86 1004.5
20260904213605 57 0 0.0 0.0 0.02 0.09 0.06 85 1004.2
20260904212705 57 0 0.0 0.0 0.03 0.09 0.06 84 1004.3
20260904211805 58 0 0.0 0.0 0.03 0.09 0.06 84 1004.9
20260904210905 58 0 0.0 0.0 0.02 0.08 0.05 83 1005.6
20260904210008 58 0 0.0 0.0 0.02 0.07 0.04 82 1006.2
20260904205405 59 0 0.0 0.0 0.01 0.06 0.03 81 1006.5
20260904204505 59 0 0.0 0.0 0.01 0.06 0.03 80 1006.4
20260904203816 59 0 0.0 0.0 0.01 0.06 0.03 79 1006.3
20260904202705 59 0 0.0 0.0 0.00 0.06 0.02 78 1006.6
20260904201805 59 0 0.0 0.0 0.00 0.06 0.02 78 1006.3
20260904200903 59 0 0.0 0.0 0.00 0.06 0.02 79 1006.4
20260904200219 59 0 0.0 0.0 0.00 0.06 0.02 79 1006.2
20260904195403 59 0 0.0 0.0 0.00 0.06 0.02 79 1006.2
20260904194504 59 0 0.0 0.0 0.00 0.06 0.02 79 1006.2
20260904193605 59 0 0.0 0.0 0.00 0.06 0.02 80 1006.2
20260904192704 59 0 0.0 0.0 0.01 0.06 0.02 80 1006.5
20260904192016 59 0 0.0 0.0 0.01 0.06 0.02 80 1006.6
20260904190904 59 0 0.0 0.0 0.01 0.06 0.02 80 1006.7
20260904190004 59 0 0.0 0.0 0.01 0.06 0.02 79 1007.0
20260904185403 59 0 0.0 0.0 0.01 0.06 0.02 80 1006.9
20260904184504 59 0 0.0 0.0 0.01 0.06 0.02 80 1007.0
20260904183605 59 0 0.0 0.0 0.01 0.06 0.02 80 1007.1
20260904182705 59 0 0.0 0.0 0.00 0.05 0.02 80 1007.4
20260904181805 59 0 0.0 0.0 0.00 0.05 0.02 80 1007.2
20260904180904 59 0 0.0 0.0 0.00 0.05 0.02 81 1006.9
20260904180005 59 0 0.0 0.0 0.00 0.05 0.02 81 1006.6
20260904175405 59 0 0.0 0.0 0.00 0.05 0.02 81 1006.6
20260904174505 59 0 0.0 0.0 0.00 0.05 0.02 81 1006.8
20260904173604 59 0 0.0 0.0 0.00 0.05 0.02 81 1006.8
20260904172704 59 0 0.0 0.0 0.00 0.05 0.02 80 1006.9
20260904172015 59 0 0.0 0.0 0.00 0.05 0.02 80 1007.4
20260904170903 59 0 0.0 0.0 0.01 0.05 0.02 80 1007.8
20260904170005 59 0 0.0 0.0 0.02 0.05 0.02 81 1008.0
20260904165404 59 0 0.0 0.0 0.02 0.05 0.02 81 1008.5
20260904164714 59 0 0.0 0.0 0.02 0.05 0.02 81 1008.9
20260904163603 59 0 0.0 0.0 0.02 0.05 0.02 81 1008.7
20260904162703 59 0 0.0 0.0 0.02 0.05 0.02 80 1008.7
20260904161805 60 0 0.0 0.0 0.02 0.05 0.02 79 1009.2
20260904160905 60 0 0.0 0.0 0.01 0.04 0.01 77 1009.4
20260904160004 61 0 0.0 0.0 0.00 0.03 0.00 74 1009.7
20260904155404 61 0 0.0 0.0 0.00 0.03 0.00 74 1009.9
20260904154504 61 0 0.0 0.0 0.00 0.03 0.00 73 1009.9
20260904153605 61 0 0.0 0.0 0.00 0.03 0.00 73 1010.0
20260904152704 60 0 0.0 0.0 0.00 0.03 0.00 74 1010.0
20260904151805 60 0 0.0 0.0 0.00 0.03 0.00 76 1010.3
20260904150904 60 0 0.0 0.0 0.00 0.03 0.00 76 1010.4
20260904150004 60 0 0.0 0.0 0.00 0.03 0.00 76 1010.3
20260904145405 60 0 0.0 0.0 0.00 0.03 0.00 76 1010.7
20260904144505 60 0 0.0 0.0 0.00 0.03 0.00 76 1010.8
20260904143604 60 0 0.0 0.0 0.00 0.03 0.00 77 1010.9
20260904142914 60 0 0.0 0.0 0.00 0.03 0.00 77 1010.6
20260904141803 60 0 0.0 0.0 0.00 0.03 0.00 77 1010.6
20260904140903 60 0 0.0 0.0 0.00 0.03 0.00 76 1010.8
20260904140215 60 0 0.0 0.0 0.00 0.03 0.00 77 1010.8
20260904135405 60 0 0.0 0.0 0.00 0.03 0.03 76 1011.1
20260904134503 61 0 0.0 0.0 0.00 0.03 0.03 78 1011.1
20260904133604 61 0 0.0 0.0 0.00 0.03 0.03 77 1011.2
20260904132916 61 0 0.0 0.0 0.00 0.03 0.03 76 1011.2
20260904131804 60 0 0.0 0.0 0.00 0.03 0.03 77 1011.2
20260904130903 60 0 0.0 0.0 0.01 0.03 0.03 78 1011.1
20260904130004 59 0 0.0 0.0 0.01 0.03 0.03 80 1011.5
20260904125408 58 0 0.0 0.0 0.01 0.03 0.03 82 1011.5
20260904124509 57 0 0.0 0.0 0.02 0.03 0.03 84 1011.6
20260904123604 57 0 0.0 0.0 0.02 0.03 0.03 84 1011.8
20260904122704 57 0 0.0 0.0 0.02 0.03 0.03 84 1012.0
20260904121813 57 0 0.0 0.0 0.02 0.03 0.03 84 1012.1
20260904120909 57 0 0.0 0.0 0.01 0.02 0.02 83 1012.3
20260904120009 57 0 0.0 0.0 0.01 0.02 0.02 83 1012.6
20260904115405 57 0 0.0 0.0 0.01 0.02 0.02 83 1012.8
20260904114504 57 0 0.0 0.0 0.00 0.02 0.02 83 1012.6
20260904113603 57 0 0.0 0.0 0.00 0.02 0.02 83 1013.2
20260904112704 56 0 0.0 0.0 0.00 0.02 0.02 83 1013.2
20260904111808 57 0 0.0 0.0 0.00 0.02 0.02 82 1013.1
20260904110908 57 0 0.0 0.0 0.01 0.02 0.02 82 1013.2
20260904110218 57 0 0.0 0.0 0.02 0.02 0.02 82 1013.4
20260904105623 57 0 0.0 0.0 0.02 0.02 0.02 82 1013.3
20260904104509 57 0 0.0 0.0 0.02 0.02 0.02 81 1013.4
20260904103603 58 0 0.0 0.0 0.02 0.02 0.02 80 1013.4
20260904102703 58 0 0.0 0.0 0.02 0.02 0.02 79 1013.5
20260904101808 59 0 0.0 0.0 0.02 0.02 0.02 77 1013.6
20260904100913 59 0 0.0 0.0 0.01 0.01 0.01 75 1013.7
20260904100004 59 0 0.0 0.0 0.00 0.00 0.00 72 1013.5
20260904095408 59 0 0.0 0.0 0.00 0.00 0.00 72 1013.5
20260904094508 59 0 0.0 0.0 0.00 0.00 0.00 69 1013.6
20260904093604 60 0 0.0 0.0 0.00 0.00 0.00 69 1013.6
20260904092703 60 0 0.0 0.0 0.00 0.00 0.00 68 1013.7
20260904092014 60 0 0.0 0.0 0.00 0.00 0.00 68 1013.6
20260904090903 60 0 0.0 0.0 0.00 0.00 0.00 68 1013.8
20260904090013 59 0 0.0 0.0 0.00 0.00 0.00 68 1013.7
20260904085403 59 0 0.0 0.0 0.00 0.00 0.00 68 1013.7
20260904084714 59 0 0.0 0.0 0.00 0.00 0.00 68 1013.6
20260904083603 59 0 0.0 0.0 0.00 0.00 0.00 67 1013.6
20260904082713 59 0 0.0 0.0 0.00 0.00 0.00 67 1013.7
20260904081804 59 0 0.0 0.0 0.00 0.00 0.00 66 1013.9
20260904080903 59 0 0.0 0.0 0.00 0.00 0.00 66 1014.0
20260904080004 59 0 0.0 0.0 0.00 0.00 0.00 65 1014.5
20260904075408 59 0 0.0 0.0 0.00 0.00 0.00 65 1014.5
20260904074504 59 0 0.0 0.0 0.00 0.00 0.00 65 1014.8
20260904073603 60 0 0.0 0.0 0.00 0.00 0.00 64 1014.9
20260904072708 60 0 0.0 0.0 0.00 0.00 0.00 64 1014.7
20260904071809 60 0 0.0 0.0 0.00 0.00 0.00 63 1014.7
20260904070904 60 0 0.0 0.0 0.00 0.00 0.00 63 1014.7
20260904070008 60 0 0.0 0.0 0.00 0.00 0.00 63 1014.8
20260904065403 60 0 0.0 0.0 0.00 0.00 0.00 62 1014.9
20260904064509 61 0 0.0 0.0 0.00 0.00 0.00 62 1015.0
20260904063604 61 0 0.0 0.0 0.00 0.00 0.00 62 1015.2
20260904062703 61 0 0.0 0.0 0.00 0.00 0.00 61 1015.2
20260904061803 61 0 0.0 0.0 0.00 0.00 0.00 61 1015.5
20260904060903 61 0 0.0 0.0 0.00 0.00 0.00 61 1015.7
20260904060217 61 0 0.0 0.0 0.00 0.00 0.00 61 1015.8
20260904055403 61 0 0.0 0.0 0.00 0.00 0.00 61 1015.9
20260904054503 61 0 0.0 0.0 0.00 0.00 0.00 60 1015.9
20260904053603 61 0 0.0 0.0 0.00 0.00 0.00 59 1016.0
20260904052703 62 0 0.0 0.0 0.00 0.00 0.00 59 1015.9
20260904051803 62 0 0.0 0.0 0.00 0.00 0.00 58 1016.1
20260904050904 62 0 0.0 0.0 0.00 0.00 0.00 57 1016.2
20260904050008 63 0 0.0 0.0 0.00 0.00 0.00 57 1016.0
20260904045404 63 0 0.0 0.0 0.00 0.00 0.00 57 1016.1
20260904044513 63 0 0.0 0.0 0.00 0.00 0.00 58 1016.2
20260904043604 63 0 0.0 0.0 0.00 0.00 0.00 57 1016.0
20260904042703 63 0 0.0 0.0 0.00 0.00 0.00 59 1016.0
20260904041803 63 0 0.0 0.0 0.00 0.00 0.00 59 1016.0
20260904040908 63 0 0.0 0.0 0.00 0.00 0.00 58 1016.1
20260904040004 63 0 0.0 0.0 0.00 0.00 0.00 59 1016.1
20260904035405 62 0 0.0 0.0 0.00 0.00 0.00 60 1016.1